This is the latest recevied weather packets stored in our database for station/object OK2JCZ-6. If no packets are shown the sender has not sent any weather packets the latest 10 day(s).
| Time | Temp. | Humidity | Pressure | Rain* | Wind** | Luminosity | Snow |
|---|---|---|---|---|---|---|---|
| 1777583677 | 2.22° C | 47% | 1028.2 hPa | 0 mm | - | - | - |
| 1777583377 | 2.22° C | 47% | 1028.3 hPa | 0 mm | - | - | - |
| 1777583077 | 2.22° C | 47% | 1028.3 hPa | 0 mm | - | - | - |
| 1777582777 | 2.22° C | 46% | 1028.3 hPa | 0 mm | - | - | - |
| 1777582477 | 2.22° C | 45% | 1028.3 hPa | 0 mm | - | - | - |
| 1777581877 | 2.22° C | 46% | 1028.4 hPa | 0 mm | - | - | - |
| 1777581577 | 2.22° C | 44% | 1028.4 hPa | 0 mm | - | - | - |
| 1777580677 | 2.78° C | 43% | 1028.4 hPa | 0 mm | - | - | - |
| 1777580377 | 3.33° C | 43% | 1028.3 hPa | 0 mm | - | - | - |
| 1777580077 | 3.33° C | 42% | 1028.3 hPa | 0 mm | - | - | - |
| 1777579477 | 3.33° C | 42% | 1028.1 hPa | 0 mm | - | - | - |
| 1777578578 | 3.89° C | 42% | 1028 hPa | 0 mm | - | - | - |
| 1777577677 | 4.44° C | 41% | 1027.8 hPa | 0 mm | - | - | - |
| 1777577377 | 4.44° C | 41% | 1027.8 hPa | 0 mm | - | - | - |
| 1777577077 | 4.44° C | 41% | 1027.8 hPa | 0 mm | - | - | - |
| 1777576777 | 4.44° C | 42% | 1027.7 hPa | 0 mm | - | - | - |
| 1777576477 | 4.44° C | 40% | 1027.7 hPa | 0 mm | - | - | - |
| 1777576177 | 5° C | 41% | 1027.6 hPa | 0 mm | - | - | - |
| 1777575877 | 5° C | 41% | 1027.5 hPa | 0 mm | - | - | - |
| 1777575279 | 5.56° C | 35% | 1027.4 hPa | 0 mm | - | - | - |
| 1777574677 | 6.67° C | 34% | 1027.3 hPa | 0 mm | - | - | - |
| 1777574077 | 7.22° C | 34% | 1027.3 hPa | 0 mm | - | - | - |
| 1777573777 | 7.22° C | 34% | 1027.2 hPa | 0 mm | - | - | - |
| 1777572577 | 8.33° C | 34% | 1027.1 hPa | 0 mm | - | - | - |
| 1777572277 | 8.33° C | 34% | 1027.1 hPa | 0 mm | - | - | - |
* Rain latest hour (hover to see other rain measurements)
** Current wind speed in m/s (hover to see current wind gust speed)